Regional Weather Roundup
Issued by NWS Cleveland, OH

Home | Current Version | Previous Version | Graphics & Text | Print | Product List | Glossary On
Versions: 1 2 3 4 5 6 7 8 9 10 11 12 13 14 15 16 17 18 19 20 21 22 23 24 25 26 27 28 29 30 31 32 33 34 35 36 37 38 39 40 41 42 43 44 45 46 47 48 49 50
000
ASUS41 KCLE 190502
RWRCLE
OHIO REGIONAL WEATHER ROUNDUP
NATIONAL WEATHER SERVICE CLEVELAND, OH
1200 AM EST SUN NOV 19 2017

NOTE: "FAIR" INDICATES FEW OR NO CLOUDS BELOW 12,000 FEET WITH NO
SIGNIFICANT WEATHER AND/OR OBSTRUCTIONS TO VISIBILITY.

OHZ001>008-015>018-024>027-034-035-043-044-190600-
   NORTHWEST OHIO

CITY           SKY/WX    TMP DP  RH WIND       PRES   REMARKS
DEFIANCE       CLOUDY    40  34  79 NW16G29   29.62R
FINDLAY        CLOUDY    39  34  82 NW15      29.57R
TOLEDO EXPRESS CLOUDY    40  36  86 NW15      29.56R
TOLEDO EXEC    CLOUDY    39  35  86 NW20      29.56R
LIMA           NOT AVBL
$$

OHZ009>014-019>023-028>033-038-089-190600-
   NORTHEAST OHIO

CITY           SKY/WX    TMP DP  RH WIND       PRES   REMARKS
CLE-HOPKINS    LGT RAIN  38  36  92 NW22G33   29.42R
CLE-LAKEFRONT  LGT RAIN  41  37  86 NW33G49   29.37R
CUY CO. ARPT   NOT AVBL
LORAIN-ELYRIA  LGT RAIN  37  31  78 NW20G33   29.44R
ASHTABULA      LGT RAIN  41  39  93 NW17G29   29.27R
AKRON-CANTON   LGT RAIN  37  33  85 NW20G35   29.34R
WOOSTER        LGT RAIN  35  33  92 NW22G35   29.41R WCI  23
MANSFIELD      LGT SNOW  34  33  96 NW17G26   29.47R FOG     WCI  23
YOUNGSTOWN     LGT RAIN  42  39  89 NW17G33   29.24R FOG
$$

OHZ042-051>053-060>062-070>072-077>081-190600-
  SOUTHWEST OHIO

CITY           SKY/WX    TMP DP  RH WIND       PRES   REMARKS
CINC-COVINGTON LGT RAIN  41  41 100 W14       29.71R FOG
CINC-LUNKEN    CLOUDY    44  44 100 VRB7      29.73R
HAMILTON       CLOUDY    44  39  82 W12       29.72R
DAYTON         CLOUDY    40  38  93 NW17G26   29.66R
WRIGHT-PAT AFB NOT AVBL
DAYTON GENERAL CLOUDY    41  36  82 NW13G21   29.66R
WILMINGTON     CLOUDY    39  38  96 NW17G26   29.65R
$$

OHZ036-037-039>041-045>050-054>059-063>069-073>076-082>088-190600-
  CENTRAL AND SOUTHEAST OHIO

CITY           SKY/WX    TMP DP  RH WIND       PRES   REMARKS
COLUMBUS       LGT RAIN  38  38 100 NW20G31   29.55R
OSU AIRPORT    FLURRIES  38  36  92 NW21G32   29.56R
BOLTON FIELD   LGT RAIN  37  35  92 NW16G26   29.58R
RICKENBACK AFB LGT RAIN  37  36  94 NW16G31   29.58R
NEWARK         LGT RAIN  39  36  89 NW16G29   29.52R
MARION         MIX PCPN  37  34  89 NW22G35   29.55R
LANCASTER      LGT RAIN  38  36  92 NW17G32   29.56R
ZANESVILLE     LGT RAIN  41  37  86 NW25G33   29.45R
NEW PHILLY     NOT AVBL
$$




USA.gov is the U.S. government's official web portal to all federal, state and local government web resources and services.